Location: Ertinghausen
(51.6624°N, 9.7874°E)
Time: 10:26:10
(UTC+00:00)

AQUA - Pass Details

Date: 23 May 2024
Orbit: 693 x 697 km, 98.3° (Epoch: 19 June)

Event Time Altitude Azimuth Distance (km) Brightness Sun altitude
Rises 01:56:55 0° 15° (NNE) 3,088 8.6 -9.7°
Reaches altitude 10° 01:59:12 10° 17° (NNE) 2,165 7.6 -9.5°
Maximum altitude 02:03:56 78° 104° (ESE) 717 3.9 -9.1°
Drops below altitude 10° 02:08:39 10° 191° (S) 2,147 5.8 -8.6°
Enters shadow 02:09:12 - 192° (SSW) 2,369 6.0 -8.5°
